Newport News, VA

2:31 AM EDT on June 27, 2017 (GMT -0400)
Newport News-Williamsburg International

Weather History for KPHF - August, 2013

Change the Weather History Date:

Friday, August 23, 2013

  Actual Average Record
Temperature  
Mean Temperature 77 °F -  
Max Temperature 86 °F 88 °F 101 °F (1968)
Min Temperature 69 °F 69 °F 55 °F (1997)
Cooling Degree Days 12    
Growing Degree Days 27 (Base 50)    
Moisture  
Dew Point 67 °F    
Average Humidity 71    
Maximum Humidity 82    
Minimum Humidity 57    
Precipitation  
Precipitation 0.08 in - - ()
Sea Level Pressure  
Sea Level Pressure 29.99 in    
Wind  
Wind Speed 4 mph (NNE)    
Max Wind Speed 9 mph    
Max Gust Speed 21 mph    
Visibility 10 miles    
Events Rain    
Averages and records for this station are not official NWS values.
T = Trace of Precipitation, MM = Missing Value Source: NWS Daily Summary

Daily Weather History Graph

Daily Weather History Graph

Search for Another Location

Airport or City:

Trip Planner

Search our weather history database for the weather conditions in past years. The results will help you decide how hot, cold, wet, or windy it might be!

Date:

Astronomy

Aug. 23, 2013 Rise Set
Actual Time 6:29 AM EDT 7:46 PM EDT
Civil Twilight 6:02 AM EDT 8:14 PM EDT
Nautical Twilight 5:29 AM EDT 8:46 PM EDT
Astronomical Twilight 4:55 AM EDT 9:20 PM EDT
Moon 9:10 PM EDT (8/23) 9:16 AM EDT (8/23)
Length of Visible Light 14h 11m
Length of Day
13h 17m
Waning Gibbous, 91% of the Moon is Illuminated
Aug 23
Waning Gibbous
Aug 28
Last Quarter
Sep 5
New
Sep 12
First Quarter
Sep 19
Full

Hourly Weather History & Observations

Time (EDT) Temp. Heat Index Dew Point Humidity Pressure Visibility Wind Dir Wind Speed Gust Speed Precip Events Conditions
12:54 AM 73.9 °F - 68.0 °F 82% 29.97 in 10.0 mi Calm Calm - N/A   Clear
1:54 AM 78.1 °F - 68.0 °F 71% 29.96 in 10.0 mi WSW 3.5 mph - N/A   Clear
2:54 AM 78.1 °F - 68.0 °F 71% 29.95 in 10.0 mi West 4.6 mph - N/A   Clear
3:54 AM 75.0 °F - 68.0 °F 79% 29.93 in 10.0 mi West 3.5 mph - N/A   Clear
5:54 AM 75.0 °F - 68.0 °F 79% 29.95 in 10.0 mi Calm Calm - N/A   Clear
6:54 AM 73.9 °F - 68.0 °F 82% 29.97 in 9.0 mi Calm Calm - N/A   Clear
7:54 AM 75.9 °F - 69.1 °F 79% 29.99 in 10.0 mi SW 5.8 mph - N/A   Clear
8:54 AM 80.1 °F 83.2 °F 70.0 °F 71% 29.98 in 10.0 mi Calm Calm - N/A   Clear
9:54 AM 82.9 °F 86.5 °F 69.1 °F 63% 29.98 in 10.0 mi Calm Calm - N/A   Clear
10:54 AM 84.9 °F 88.2 °F 68.0 °F 57% 29.98 in 10.0 mi ENE 6.9 mph - N/A   Clear
12:54 PM 84.0 °F 87.8 °F 69.1 °F 61% 29.99 in 10.0 mi NNE 5.8 mph - N/A   Clear
1:54 PM 82.0 °F 84.9 °F 68.0 °F 62% 29.99 in 10.0 mi NNE 3.5 mph - N/A   Scattered Clouds
2:54 PM 82.0 °F 84.9 °F 68.0 °F 62% 29.96 in 10.0 mi NE 8.1 mph - N/A   Mostly Cloudy
3:54 PM 81.0 °F 84.1 °F 69.1 °F 67% 29.96 in 10.0 mi NE 8.1 mph - 0.00 in   Overcast
4:54 PM 78.1 °F - 68.0 °F 71% 29.96 in 10.0 mi NE 5.8 mph - 0.00 in Rain Light Rain
5:54 PM 77.0 °F - 68.0 °F 74% 29.98 in 10.0 mi ENE 9.2 mph 20.7 mph 0.02 in Rain Light Rain
6:54 PM 73.0 °F - 63.0 °F 71% 29.99 in 10.0 mi NE 6.9 mph - 0.00 in   Overcast
7:54 PM 75.9 °F - 61.0 °F 60% 30.01 in 10.0 mi East 9.2 mph - N/A   Overcast
8:54 PM 73.0 °F - 62.1 °F 68% 30.05 in 10.0 mi North 5.8 mph - 0.00 in Rain Light Rain
9:54 PM 71.1 °F - 63.0 °F 75% 30.07 in 10.0 mi North 3.5 mph - 0.03 in Rain Light Rain
10:54 PM 70.0 °F - 60.1 °F 71% 30.08 in 10.0 mi NNW 6.9 mph - 0.00 in   Overcast
11:54 PM 69.1 °F - 62.1 °F 78% 30.10 in 6.0 mi North 9.2 mph - 0.03 in Rain Light Rain